Location: Unspecified
(0.0000°N, 0.0000°E)
Time: 02:40:30
(UTC+01:00)

ISS - All Passes

Search period start: 16 December 2017 00:00
Search period end: 26 December 2017 00:00
Orbit: 402 x 406 km, 51.6° (Epoch: 16 December)

Date Brightness Start Highest point End Pass type
(mag) Time Alt. Az. Time Alt. Az. Time Alt. Az.
16 Dec - 08:50:24 10° S 08:53:21 31° SE 08:56:17 10° ENE daylight
16 Dec - 20:24:49 10° N 20:27:13 19° NE 20:29:38 10° ESE night (unlit)
16 Dec - 22:02:03 10° W 22:03:30 12° SW 22:04:56 10° SSW night (unlit)
17 Dec - 07:59:44 10° SSE 08:01:08 12° SE 08:02:33 10° E daylight
17 Dec - 09:34:58 10° WSW 09:37:25 19° NW 09:39:52 10° N daylight
17 Dec - 21:08:20 10° WNW 21:11:17 31° SW 21:14:14 10° S night (unlit)
18 Dec - 08:42:00 10° SW 08:45:13 55° NW 08:48:25 10° NNE daylight
18 Dec - 20:15:50 10° NNW 20:19:05 82° NE 20:22:21 10° SE visible
19 Dec - 07:49:52 10° SSW 07:53:01 45° SE 07:56:10 10° NE daylight
19 Dec - 19:24:04 10° N 19:26:52 26° NE 19:29:41 10° ESE visible
20 Dec - 06:58:35 10° SSE 07:00:47 17° SE 07:02:59 10° E daylight
20 Dec - 08:35:14 10° W 08:37:03 14° NW 08:38:53 10° NNW daylight
20 Dec - 18:33:55 10° NE 18:34:37 11° NE 18:35:20 10° ENE daylight
20 Dec - 20:08:16 10° WNW 20:10:53 22° SW 20:13:32 10° S visible
21 Dec - 07:41:46 10° WSW 07:44:48 36° NW 07:47:51 10° NNE daylight
21 Dec - 19:15:26 10° NW 19:18:39 66° SW 19:21:54 10° SSE daylight
22 Dec - 06:49:19 10° SSW 06:52:34 69° SE 06:55:49 10° NE daylight
22 Dec - 18:23:21 10° NNW 18:26:24 38° NE 18:29:28 10° SE daylight
23 Dec - 05:57:38 10° S 06:00:18 23° SE 06:02:58 10° ENE visible
23 Dec - 07:36:13 10° WNW 07:36:34 10° NW 07:36:57 10° NW daylight
23 Dec - 17:32:14 10° NNE 17:34:08 15° NE 17:36:02 10° E daylight
23 Dec - 19:08:16 10° W 19:10:24 16° SW 19:12:33 10° SSW daylight
24 Dec - 06:41:31 10° WSW 06:44:17 26° NW 06:47:04 10° N daylight
24 Dec - 18:15:00 10° NW 18:18:07 43° SW 18:21:15 10° SSE daylight
25 Dec - 05:48:45 10° SW 05:52:00 79° NW 05:55:15 10° NNE visible
25 Dec - 17:22:38 10° NNW 17:25:50 57° NE 17:29:02 10° SE daylight
